Bigfork, MN

1:29 PM CDT on October 22, 2017 (GMT -0500)
Bigfork Municipal

Weather History for KFOZ - January, 2013

Change the Weather History Date:

Tuesday, January 1, 2013

  Actual Average (KGPZ) Record (KGPZ)
Temperature  
Mean Temperature -2 °F -  
Max Temperature 17 °F 16 °F 44 °F (1964)
Min Temperature -20 °F 0 °F -36 °F (1979)
Degree Days  
Heating Degree Days 66    
Moisture  
Dew Point -5 °F    
Average Humidity 80    
Maximum Humidity 93    
Minimum Humidity 69    
Precipitation  
Precipitation 0.00 in - - ()
Sea Level Pressure  
Sea Level Pressure 30.01 in    
Wind  
Wind Speed 3 mph (SSW)    
Max Wind Speed 13 mph    
Max Gust Speed -    
Visibility 8 miles    
Events Snow    
Averages and records for this station are not official NWS values.
T = Trace of Precipitation, MM = Missing Value Source: NWS Daily Summary

Daily Weather History Graph

Daily Weather History Graph

Search for Another Location

Airport or City:

Trip Planner

Search our weather history database for the weather conditions in past years. The results will help you decide how hot, cold, wet, or windy it might be!

Date:

Astronomy

Jan. 01, 2013 Rise Set
Actual Time 8:03 AM CST 4:33 PM CST
Civil Twilight 7:27 AM CST 5:09 PM CST
Nautical Twilight 6:48 AM CST 5:48 PM CST
Astronomical Twilight 6:10 AM CST 6:26 PM CST
Moon 9:26 PM CST (1/1) 9:56 AM CST (1/1)
Length of Visible Light 9h 41m
Length of Day
8h 29m
Waning Gibbous, 83% of the Moon is Illuminated
Jan 1
Waning Gibbous
Jan 4
Last Quarter
Jan 11
New
Jan 18
First Quarter
Jan 26
Full

Hourly Weather History & Observations

Time (CST) Temp. Windchill Dew Point Humidity Pressure Visibility Wind Dir Wind Speed Gust Speed Precip Events Conditions
12:13 AM -14.8 °F - -20.2 °F 77% 30.16 in 10.0 mi Calm Calm - N/A   Clear
12:33 AM -16.6 °F - -22.0 °F 76% 30.16 in 10.0 mi Calm Calm - N/A   Clear
12:53 AM -16.6 °F - -20.2 °F 84% 30.15 in 10.0 mi Calm Calm - N/A   Clear
1:13 AM -16.6 °F - -22.0 °F 76% 30.14 in 10.0 mi Calm Calm - N/A   Clear
1:33 AM -16.6 °F - -23.8 °F 70% 30.15 in 10.0 mi Calm Calm - N/A   Clear
1:53 AM -16.6 °F - -23.8 °F 70% 30.15 in 10.0 mi Calm Calm - N/A   Clear
2:13 AM -16.6 °F - -23.8 °F 70% 30.15 in 10.0 mi Calm Calm - N/A   Clear
2:33 AM -18.4 °F - -23.8 °F 76% 30.16 in 10.0 mi Calm Calm - N/A   Clear
2:53 AM -18.4 °F - -23.8 °F 76% 30.15 in 10.0 mi Calm Calm - N/A   Clear
3:13 AM -18.4 °F - -25.6 °F 70% 30.15 in 10.0 mi Calm Calm - N/A   Clear
3:33 AM -18.4 °F - -25.6 °F 70% 30.16 in 10.0 mi Calm Calm - N/A   Clear
3:53 AM -18.4 °F - -25.6 °F 70% 30.14 in 10.0 mi Calm Calm - N/A   Clear
4:13 AM -18.4 °F - -25.6 °F 70% 30.14 in 10.0 mi Calm Calm - N/A   Clear
4:33 AM -20.2 °F - -25.6 °F 76% 30.13 in 10.0 mi Calm Calm - N/A   Clear
4:53 AM -20.2 °F - -25.6 °F 76% 30.13 in 10.0 mi Calm Calm - N/A   Clear
5:13 AM -20.2 °F - -25.6 °F 76% 30.13 in 10.0 mi Calm Calm - N/A   Clear
5:33 AM -20.2 °F - -27.4 °F 69% 30.12 in 10.0 mi Calm Calm - N/A   Clear
5:53 AM -20.2 °F - -25.6 °F 76% 30.11 in 10.0 mi Calm Calm - N/A   Clear
6:13 AM -20.2 °F - -27.4 °F 69% 30.10 in 10.0 mi Calm Calm - N/A   Clear
6:33 AM -20.2 °F -30.9 °F -27.4 °F 69% 30.10 in 10.0 mi SSW 3.5 mph - N/A   Clear
6:53 AM -18.4 °F -28.9 °F -23.8 °F 76% 30.10 in 10.0 mi SSW 3.5 mph - N/A   Clear
7:13 AM -16.6 °F - -23.8 °F 70% 30.09 in 10.0 mi Calm Calm - N/A   Clear
7:33 AM -18.4 °F - -23.8 °F 76% 30.08 in 10.0 mi Calm Calm - N/A   Clear
7:53 AM -16.6 °F - -23.8 °F 70% 30.08 in 10.0 mi Calm Calm - N/A   Clear
8:13 AM -16.6 °F - -23.8 °F 70% 30.07 in 10.0 mi Calm Calm - N/A   Clear
8:33 AM -14.8 °F - -20.2 °F 77% 30.07 in 10.0 mi Calm Calm - N/A   Clear
9:13 AM -9.4 °F - -14.8 °F 77% 30.05 in 10.0 mi Calm Calm - N/A   Clear
9:33 AM -9.4 °F -18.6 °F -14.8 °F 77% 30.05 in 10.0 mi SSW 3.5 mph - N/A   Clear
9:53 AM -7.6 °F -16.5 °F -11.2 °F 84% 30.05 in 10.0 mi SW 3.5 mph - N/A   Mostly Cloudy
10:13 AM -0.4 °F -10.4 °F -5.8 °F 78% 30.05 in 10.0 mi SW 4.6 mph - N/A   Overcast
10:33 AM 1.4 °F -8.3 °F -4.0 °F 78% 30.05 in 10.0 mi SW 4.6 mph - N/A   Overcast
10:53 AM 3.2 °F -11.3 °F -2.2 °F 78% 30.04 in 5.0 mi West 9.2 mph - N/A Snow Light Snow
11:13 AM 3.2 °F -11.3 °F -2.2 °F 78% 30.04 in 3.0 mi West 9.2 mph - N/A Snow Light Snow
11:33 AM 3.2 °F -7.8 °F -0.4 °F 85% 30.03 in 4.0 mi WSW 5.8 mph - N/A Snow Light Snow
11:53 AM 5.0 °F -8.1 °F 1.4 °F 85% 30.02 in 5.0 mi WSW 8.1 mph - N/A Snow Light Snow
12:13 PM 6.8 °F -6.9 °F 1.4 °F 79% 30.01 in 5.0 mi SW 9.2 mph - N/A Snow Light Snow
12:33 PM 8.6 °F -6.3 °F 3.2 °F 79% 30.00 in 7.0 mi SW 11.5 mph - N/A Snow Light Snow
12:53 PM 8.6 °F -5.5 °F 5.0 °F 85% 29.99 in 10.0 mi WSW 10.4 mph - N/A Snow Light Snow
1:13 PM 10.4 °F -1.5 °F 6.8 °F 85% 29.98 in 5.0 mi WSW 8.1 mph - N/A Snow Light Snow
1:33 PM 10.4 °F -1.5 °F 6.8 °F 85% 29.98 in 7.0 mi SW 8.1 mph - N/A Snow Light Snow
1:53 PM 10.4 °F -1.5 °F 6.8 °F 85% 29.97 in 7.0 mi SW 8.1 mph - N/A Snow Light Snow
2:13 PM 10.4 °F -1.5 °F 6.8 °F 85% 29.96 in 5.0 mi SSW 8.1 mph - N/A Snow Light Snow
2:33 PM 10.4 °F -0.4 °F 6.8 °F 85% 29.96 in 5.0 mi SSW 6.9 mph - N/A Snow Light Snow
2:53 PM 10.4 °F -2.4 °F 6.8 °F 85% 29.96 in 4.0 mi SSW 9.2 mph - N/A Snow Light Snow
3:13 PM 12.2 °F 1.7 °F 6.8 °F 79% 29.96 in 4.0 mi SSW 6.9 mph - N/A Snow Light Snow
3:33 PM 12.2 °F 1.7 °F 6.8 °F 79% 29.96 in 7.0 mi SSW 6.9 mph - N/A Snow Light Snow
3:53 PM 10.4 °F -0.4 °F 6.8 °F 85% 29.96 in 5.0 mi SSW 6.9 mph - N/A Snow Light Snow
4:13 PM 10.4 °F 0.8 °F 6.8 °F 85% 29.96 in 5.0 mi South 5.8 mph - N/A Snow Light Snow
4:33 PM 10.4 °F 0.8 °F 6.8 °F 85% 29.95 in 3.0 mi South 5.8 mph - N/A Snow Light Snow
4:53 PM 10.4 °F 0.8 °F 6.8 °F 85% 29.95 in 7.0 mi South 5.8 mph - N/A Snow Light Snow
5:13 PM 10.4 °F 0.8 °F 6.8 °F 85% 29.95 in 7.0 mi South 5.8 mph - N/A Snow Light Snow
5:33 PM 12.2 °F 1.7 °F 6.8 °F 79% 29.94 in 10.0 mi South 6.9 mph - N/A Snow Light Snow
5:53 PM 12.2 °F 4.3 °F 6.8 °F 79% 29.94 in 10.0 mi South 4.6 mph - N/A   Overcast
6:13 PM 12.2 °F 4.3 °F 8.6 °F 85% 29.94 in 10.0 mi South 4.6 mph - N/A   Overcast
6:33 PM 12.2 °F 4.3 °F 8.6 °F 85% 29.93 in 10.0 mi South 4.6 mph - N/A   Overcast
6:53 PM 12.2 °F 2.9 °F 8.6 °F 85% 29.92 in 10.0 mi South 5.8 mph - N/A   Overcast
7:13 PM 12.2 °F 1.7 °F 8.6 °F 85% 29.91 in 10.0 mi South 6.9 mph - N/A   Overcast
7:33 PM 12.2 °F 1.7 °F 10.4 °F 92% 29.91 in 10.0 mi South 6.9 mph - N/A   Overcast
7:53 PM 14.0 °F 3.9 °F 10.4 °F 86% 29.91 in 10.0 mi South 6.9 mph - N/A   Overcast
8:13 PM 14.0 °F 2.9 °F 10.4 °F 86% 29.90 in 10.0 mi South 8.1 mph - N/A   Overcast
8:33 PM 14.0 °F 2.9 °F 10.4 °F 86% 29.89 in 10.0 mi South 8.1 mph - N/A   Overcast
8:53 PM 15.8 °F 4.2 °F 12.2 °F 86% 29.88 in 7.0 mi SSW 9.2 mph - N/A   Overcast
9:13 PM 15.8 °F 2.1 °F 12.2 °F 86% 29.88 in 7.0 mi SSW 12.7 mph - N/A   Overcast
9:33 PM 15.8 °F 2.7 °F 12.2 °F 86% 29.87 in 7.0 mi SSW 11.5 mph - N/A   Overcast
9:53 PM 17.6 °F 5.0 °F 14.0 °F 86% 29.87 in 7.0 mi SSW 11.5 mph - N/A   Overcast
10:13 PM 17.6 °F 6.4 °F 14.0 °F 86% 29.86 in 7.0 mi SSW 9.2 mph - N/A   Overcast
10:33 PM 17.6 °F 6.4 °F 15.8 °F 93% 29.86 in 7.0 mi SSW 9.2 mph - N/A   Overcast
10:53 PM 17.6 °F 5.7 °F 15.8 °F 93% 29.86 in 7.0 mi SSW 10.4 mph - N/A   Overcast
11:13 PM 17.6 °F 5.0 °F 15.8 °F 93% 29.86 in 7.0 mi SSW 11.5 mph - N/A   Overcast
11:33 PM 17.6 °F 4.3 °F 15.8 °F 93% 29.86 in 7.0 mi SSW 12.7 mph - N/A   Overcast
11:53 PM 17.6 °F 5.7 °F 15.8 °F 93% 29.85 in 7.0 mi SSW 10.4 mph - N/A   Overcast